Regional Weather Roundup
Issued by NWS

Home | Current Version | Previous Version | Graphics & Text | Print | Product List | Glossary On
Versions: 1 2 3 4 5 6 7 8 9 10 11 12 13 14 15 16 17 18 19 20 21 22 23 24 25 26 27 28 29 30 31 32 33 34 35 36 37 38 39 40 41 42 43 44 45 46 47 48 49 50
902
ASUS45 KBOU 101607
RWRCO

WEATHER ROUNDUP FOR COLORADO
NATIONAL WEATHER SERVICE DENVER/BOULDER CO
900 AM MST WED FEB 10 2016

NOTE: "FAIR" INDICATES FEW OR NO CLOUDS BELOW 12000 FEET WITH NO
SIGNIFICANT WEATHER AND/OR OBSTRUCTIONS TO VISIBILITY.

COZ001>005-013-030-031-101700-
...NORTHWEST COLORADO...

CITY           SKY/WX    TMP DP  RH WIND       PRES   REMARKS
CRAIG          CLOUDY     2   1  96 CALM      30.44R FOG
HAYDEN         CLOUDY    19  10  68 E12       30.42R WCI   7
MEEKER         CLOUDY    14   9  80 CALM      30.44R
MOUNT WERNER   NOT AVBL
STEAMBOAT SPGS CLOUDY    11   8  86 CALM      30.43S
WALDEN         CLOUDY    18   5  57 SE6       30.40S WCI   9
$$

COZ006>008-011-101700-
...WEST CENTRAL VALLEYS...

CITY           SKY/WX    TMP DP  RH WIND       PRES   REMARKS
GRAND JUNCTION CLOUDY    25  21  85 E7        30.49R WCI  17
MONTROSE       CLOUDY    25  14  63 S5        30.50S WCI  19
EAGLE          MOSUNNY    9   5  85 CALM      30.57S
RIFLE          CLOUDY    20  14  77 CALM      30.50S
DELTA          CLOUDY    30  19  65 NE3       30.50S
NUCLA          CLOUDY    28  18  64 E3        30.51S
$$

COZ017>023-064>068-101700-
...SOUTHWEST COLORADO...

CITY           SKY/WX    TMP DP  RH WIND       PRES   REMARKS
DURANGO        CLOUDY    22   9  57 CALM      30.46R
CORTEZ         CLOUDY    28  17  63 E3        30.48R
PAGOSA SPRINGS CLOUDY    29   8  39 CALM      30.48R
TELLURIDE      CLOUDY    33   4  29 SE5       30.53R WCI  28
WOLF CREEK PAS CLOUDY    34  -9  15 SW5       30.59S WCI  30
$$

COZ009-010-012-014-032>034-037-058>063-101700-
...CENTRAL COLORADO...

CITY           SKY/WX    TMP DP  RH WIND       PRES   REMARKS
ASPEN          CLOUDY    22  11  62 SE6       30.46S WCI  14
BUENA VISTA    CLOUDY    28  11  49 CALM      30.42S
COPPER MTN     CLOUDY    30  -6  21 W23G29    30.50F WCI  17
BERTHOUD PASS  FAIR      23  12  63 NW32G49   30.45S WCI   5
COTTONWOOD PAS CLOUDY    45 -18   6 SW13G24   30.44S
GUNNISON       CLOUDY    -9 -13  84 CALM      30.63S VSB 1/4
KREMMLING      FOG      N/A N/A N/A CALM      30.55S VSB<1/4
LEADVILLE      CLOUDY    30  -2  25 N9        30.46R WCI  22
MONARCH PASS   CLOUDY    27  -4  26 W37       30.59S WCI   9
SALIDA         NOT AVBL
SUNLIGHT       CLOUDY    32   9  37 CALM      30.56
WILKERSON PASS CLOUDY    32  -6  19 NW12G29   30.46S WCI  23
$$

COZ069>075-101700-
...SAN LUIS VALLEY/SANGRE DE CRISTO MOUNTAINS...

CITY           SKY/WX    TMP DP  RH WIND       PRES   REMARKS
ALAMOSA        CLOUDY    25  18  74 NW3       30.47R
LA VETA PASS   CLOUDY    34   5  29 S15G24    30.46R WCI  24
SAGUACHE       CLOUDY    30  10  43 N8        30.48R WCI  23
$$

COZ035-036-038>040-101700-
...NORTHERN COLORADO FRONT RANGE...

CITY           SKY/WX    TMP DP  RH WIND       PRES   REMARKS
DENVER INTL AP CLOUDY    50  16  25 SW13      30.18S
DMNS CITY PARK   N/A     57   8  14 W7G13     30.20R
AURORA         NOT AVBL
FRONT RANGE AP MOSUNNY   48  18  29 MISG      30.19R
ERIE MUNI ARPT SUNNY     53  16  23 W6        30.18S
BOULDER MUN AP SUNNY     61  12  15 W6        30.18S
CENTENNIAL     CLOUDY    49  14  24 W16       30.21R
BROOMFIELD     MOSUNNY   59   9  13 NW14G21   30.21S
FORT COLLINS   CLOUDY    52  19  28 NW8       30.16R
LONGMONT       CLOUDY    59  14  17 SW6       30.18F
$$

COZ041-046-047-076>085-087-088-101700-
...PIKES PEAK/PALMER DIVIDE AND SOUTHERN FOOTHILLS...

CITY           SKY/WX    TMP DP  RH WIND       PRES   REMARKS
COLO. SPRINGS  CLOUDY    50  10  20 N13       30.24R
A. F. ACADEMY  CLOUDY    52   2  13 W21G26    30.24S
SCHRIEVER AFB  NOT AVBL
ELLICOTT       CLOUDY   N/A N/A N/A N6        30.21S
FALCON         NOT AVBL
FORT CARSON    CLOUDY    47  10  22 SW6       30.21S
LIMON          CLOUDY    36  19  50 W12       30.18R
MONUMENT HILL  CLOUDY    37  12  35 W12       30.28R
TRINIDAD       SUNNY     51   9  18 W17       30.25F
$$

COZ042>045-048>051-090-091-101700-
...NORTHEAST COLORADO...

CITY           SKY/WX    TMP DP  RH WIND       PRES   REMARKS
GREELEY ARPT   CLOUDY    27  21  80 NW6       30.14F WCI  20
AKRON          CLOUDY    40  21  46 W21       30.09R
BURLINGTON     SUNNY     42  23  46 W14       30.10R
WRAY           SUNNY     43  24  46 W14       30.06S
STERLING       CLOUDY    43  28  56 S8        30.07R
HOLYOKE        SUNNY     41  28  60 W15       30.05S
FORT MORGAN    CLOUDY    39  22  50 W15       30.12S
$$

COZ086-089-092>099-101700-
...SOUTHEAST COLORADO...

CITY           SKY/WX    TMP DP  RH WIND       PRES   REMARKS
PUEBLO         SUNNY     54  14  20 W16       30.18F
LA JUNTA       SUNNY     47  21  35 W15       30.17S
LAMAR          SUNNY     44  25  47 W10       30.14F
SPRINGFIELD      N/A     60  13  15 W17G28    30.16S
$$




USA.gov is the U.S. government's official web portal to all federal, state and local government web resources and services.